DELTA 1 DEB, 21466

Orbit data source: Space-Track

DELTA 1 DEB, 21466 is space debris in SSO originally from a launch on Thu, 12 Jun 1975 UTC launched from the Air Force Western Test Range (AFWTR). Debris objects in space refer to the collection of defunct objects orbiting the Earth. Examples of debris include non-operational satellites, rocket bodies, and fragments generated from explosions, collisions, or faulty payload assembly.

Loading next visibility...
Identifier
21466, 1975-052FA
Orbit
SSO
Country
Flag of USUS
Related business
Manufacturer
Unknown
Mission
Spacecraft
Bus & Motor
Unknown
Mass
Unknown
Launch date (UTC)
1975-06-12 (51 years ago)
Launch vehicle
Unknown
Launch site
Air Force Western Test Range (AFWTR)
Object type
Payload
Rocket body
Debris
Shape & HBR
Unknown shape, 0.1 m
Radar Cross Section
Medium (>0.1 m² and <1 m²)

Expand to show TLE details & history
Last TLE update: 2 days ago

TLE from 2 days ago
0 DELTA 1 DEB
1 21466U 75052FA  26171.39983765  .00000120  00000-0  36455-3 0  9994
2 21466  99.6721 336.7282 0137220 117.3199 273.7829 13.22204782692378
Epoch: 2026-06-20T09:35Z
TLE epoch observation values (Epoch: 2026-06-20T09:35:45.972Z)
Latitude
29.11815°
Longitude
-81.24802°
Altitude
1,174.365 km
Speed
7.271 km/s
True Right ascension
22h 05m 14s
True Declination
28° 58' 49"
Sunlit
Object was in daylight at epoch
Visualization orbit readout
Latitude
Unknown
Longitude
Unknown
Altitude
Unknown
Speed
Unknown
Apparent Right ascension
Unknown
Apparent Declination
Unknown
Sunlit
N/A
Visualization observer readout
Local Sidereal Time
14:42:53
Azimuth
Unknown
Elevation
Unknown
Doppler factor
Unknown
Orbital elements
Apogee altitude
1,277.272 km
Perigee altitude
1,070.021 km
Semi-major axis
7,551.784 km
Eccentricity
0.01372
Inclination
99.6721°
RAAN
336.7282°
Arg. of periapsis
117.3199°
True anomaly
272.21232°
Mean anomaly
273.7829°
Eccentric anomaly
272.99776°
Mean motion
3.30726 °/min
Orbital period
108.85 mins
BSTAR
0.00036455
Loading maneuver chart data...
Computing Atmospheric mass density...
Loading historical data...
Loading historical data...
Loading historical data...
Loading historical data...
Loading historical data...
Loading historical data...
Loading historical data...

Documentation

Showing up to 5 results
|